SR9NCI Weather Reports


time (UTC)temp
C
wind
direction
speed
KPH
gust
KPH
rain 1hr
cm
rain 24hr
cm
rain mn
cm
humidity
%
barometer
mb
20260507023630 18 157 3.2 6.4 0.00 0.00 0.00
20260507023228 18 157 6.4 9.7 0.00 0.00 0.00
20260507022828 18 157 4.8 9.7 0.00 0.00 0.00
20260507022425 18 157 4.8 9.7 0.00 0.00 0.00
20260507022016 18 151 8.0 14.5 0.00 0.00 0.00
20260507021614 18 137 4.8 11.3 0.00 0.00 0.00
20260507021213 18 151 6.4 12.9 0.00 0.00 0.00
20260507020812 18 136 6.4 11.3 0.00 0.00 0.00
20260507020409 18 157 4.8 11.3 0.00 0.00 0.00
20260507020009 18 153 4.8 9.7 0.00 0.00 0.00
20260507015606 18 152 6.4 12.9 0.00 0.00 0.00
20260507015205 18 157 8.0 12.9 0.00 0.00 0.00
20260507014803 18 157 6.4 14.5 0.00 0.00 0.00
20260507014401 18 158 9.7 14.5 0.00 0.00 0.00
20260507013954 18 167 14.5 19.3 0.00 0.00 0.00
20260507013552 18 171 16.1 22.5 0.00 0.00 0.00
20260507013150 18 172 14.5 20.9 0.00 0.00 0.00
20260507012749 18 175 11.3 16.1 0.00 0.00 0.00
20260507012347 18 186 22.5 30.6 0.00 0.00 0.00
20260507011946 18 182 22.5 32.2 0.00 0.00 0.00
20260507011544 18 176 17.7 24.1 0.00 0.00 0.00
20260507011142 18 164 16.1 19.3 0.00 0.00 0.00
20260507010741 18 182 17.7 24.1 0.00 0.00 0.00
20260507010339 18 182 19.3 25.7 0.00 0.00 0.00
20260507005931 18 199 19.3 27.4 0.00 0.00 0.00
20260507005528 18 200 22.5 35.4 0.00 0.00 0.00
20260507005127 18 197 12.9 17.7 0.00 0.00 0.00
20260507004725 18 203 11.3 17.7 0.00 0.00 0.00
20260507004323 19 227 8.0 14.5 0.00 0.00 0.00
20260507003920 18 194 12.9 20.9 0.00 0.00 0.00
20260507003519 18 162 11.3 12.9 0.00 0.00 0.00
20260507003118 18 174 12.9 19.3 0.00 0.00 0.00
20260507002717 18 186 19.3 35.4 0.00 0.00 0.00
20260507002313 18 163 17.7 25.7 0.00 0.00 0.00
20260507001906 18 157 19.3 27.4 0.00 0.00 0.00
20260507001504 18 152 16.1 24.1 0.00 0.00 0.00
20260507001103 18 148 14.5 20.9 0.00 0.00 0.00
20260507000702 19 158 12.9 19.3 0.00 0.00 0.00
20260507000259 19 178 12.9 19.3 0.00 0.00 0.00
20260506235858 19 200 14.5 19.3 0.00 0.00 0.00
20260506235456 20 203 17.7 29.0 0.00 0.00 0.00
20260506235055 19 181 14.5 25.7 0.00 0.00 0.00
20260506234653 19 198 11.3 17.7 0.00 0.00 0.00
20260506234251 19 196 12.9 22.5 0.00 0.00 0.00
20260506233843 20 202 6.4 11.3 0.00 0.00 0.00
20260506233441 20 168 12.9 16.1 0.00 0.00 0.00
20260506233039 20 194 16.1 30.6 0.00 0.00 0.00
20260506232638 20 198 11.3 16.1 0.00 0.00 0.00
20260506232236 20 202 8.0 12.9 0.00 0.00 0.00
20260506231835 20 188 4.8 8.0 0.00 0.00 0.00
20260506231432 20 200 9.7 12.9 0.00 0.00 0.00
20260506231031 20 196 11.3 17.7 0.00 0.00 0.00
20260506230630 20 200 8.0 11.3 0.00 0.00 0.00
20260506230229 20 164 11.3 14.5 0.00 0.00 0.00
20260506225821 20 163 9.7 14.5 0.00 0.00 0.00
20260506225418 20 155 14.5 19.3 0.00 0.00 0.00
20260506225017 20 176 14.5 17.7 0.00 0.00 0.00
20260506224616 20 173 14.5 19.3 0.00 0.00 0.00
20260506224214 20 187 12.9 16.1 0.00 0.00 0.00
20260506223812 20 182 16.1 22.5 0.00 0.00 0.00
20260506223410 20 191 16.1 24.1 0.00 0.00 0.00
20260506223009 20 165 19.3 22.5 0.00 0.00 0.00
20260506222608 20 172 24.1 30.6 0.00 0.00 0.00
20260506222205 20 168 16.1 24.1 0.00 0.00 0.00
20260506221757 20 163 20.9 29.0 0.00 0.00 0.00
20260506221355 20 165 20.9 29.0 0.00 0.00 0.00
20260506220954 20 162 14.5 20.9 0.00 0.00 0.00
20260506220552 20 157 16.1 29.0 0.00 0.00 0.00
20260506220150 20 149 17.7 25.7 0.00 0.00 0.00
20260506215749 20 178 20.9 29.0 0.00 0.00 0.00
20260506215347 20 175 12.9 22.5 0.00 0.00 0.00
20260506214946 20 201 11.3 19.3 0.00 0.00 0.00
20260506214617 20 185 12.9 19.3 0.00 0.00 0.00
20260506214544 20 185 12.9 19.3 0.00 0.00 0.00
20260506214142 20 187 14.5 19.3 0.00 0.00 0.00
20260506213734 20 195 9.7 17.7 0.00 0.00 0.00
20260506213333 20 182 12.9 19.3 0.00 0.00 0.00
20260506212930 20 177 17.7 25.7 0.00 0.00 0.00
20260506212529 20 197 17.7 24.1 0.00 0.00 0.00
20260506212128 20 170 16.1 22.5 0.00 0.00 0.00
20260506211727 20 162 17.7 22.5 0.00 0.00 0.00
20260506210923 21 177 17.7 30.6 0.00 0.00 0.00
20260506210522 21 160 9.7 14.5 0.00 0.00 0.00
20260506210120 21 180 11.3 16.1 0.00 0.00 0.00
20260506205711 21 175 16.1 22.5 0.00 0.00 0.00
20260506204908 21 180 14.5 19.3 0.00 0.00 0.00
20260506204507 21 187 14.5 19.3 0.00 0.00 0.00
20260506204105 21 185 17.7 25.7 0.00 0.00 0.00
20260506203703 21 181 25.7 43.5 0.00 0.00 0.00
20260506203301 21 172 19.3 24.1 0.00 0.00 0.00
20260506202900 21 173 22.5 32.2 0.00 0.00 0.00
20260506202459 21 170 20.9 27.4 0.00 0.00 0.00
20260506202056 21 170 17.7 25.7 0.00 0.00 0.00
20260506201648 21 192 17.7 24.1 0.00 0.00 0.00
20260506201246 21 181 24.1 32.2 0.00 0.00 0.00
20260506200845 21 172 24.1 33.8 0.00 0.00 0.00
20260506200443 21 185 16.1 22.5 0.00 0.00 0.00
20260506200041 21 178 20.9 29.0 0.00 0.00 0.00
20260506195640 21 188 17.7 25.7 0.00 0.00 0.00
20260506195239 21 186 17.7 25.7 0.00 0.00 0.00
20260506194837 21 186 16.1 27.4 0.00 0.00 0.00
20260506194436 21 189 17.7 25.7 0.00 0.00 0.00
20260506193626 21 196 22.5 32.2 0.00 0.00 0.00
20260506193224 21 188 20.9 29.0 0.00 0.00 0.00
20260506192822 21 177 16.1 27.4 0.00 0.00 0.00
20260506192421 21 164 9.7 19.3 0.00 0.00 0.00
20260506192019 21 157 9.7 14.5 0.00 0.00 0.00
20260506191618 21 182 14.5 19.3 0.00 0.00 0.00
20260506191215 21 144 11.3 19.3 0.00 0.00 0.00
20260506190813 21 148 12.9 17.7 0.00 0.00 0.00
20260506190412 21 120 6.4 11.3 0.00 0.00 0.00
20260506190010 21 137 6.4 14.5 0.00 0.00 0.00
20260506185601 21 163 6.4 11.3 0.00 0.00 0.00
20260506185159 21 183 8.0 11.3 0.00 0.00 0.00
20260506184758 21 160 8.0 12.9 0.00 0.00 0.00
20260506184357 21 176 11.3 20.9 0.00 0.00 0.00
20260506183954 21 183 14.5 19.3 0.00 0.00 0.00
20260506183553 21 177 11.3 17.7 0.00 0.00 0.00
20260506183151 21 170 17.7 29.0 0.00 0.00 0.00
20260506182750 21 160 8.0 11.3 0.00 0.00 0.00
20260506182349 21 165 12.9 19.3 0.00 0.00 0.00
20260506181946 22 159 16.1 29.0 0.00 0.00 0.00
20260506181538 22 159 14.5 20.9 0.00 0.00 0.00
20260506181136 22 169 24.1 35.4 0.00 0.00 0.00
20260506180735 22 153 19.3 29.0 0.00 0.00 0.00
20260506180333 22 163 14.5 24.1 0.00 0.00 0.00
20260506175931 22 164 22.5 41.8 0.00 0.00 0.00
20260506175530 22 158 19.3 30.6 0.00 0.00 0.00
20260506175129 22 168 17.7 30.6 0.00 0.00 0.00
20260506174726 22 173 14.5 20.9 0.00 0.00 0.00
20260506174325 22 158 12.9 17.7 0.00 0.00 0.00
20260506173924 22 155 11.3 16.1 0.00 0.00 0.00
20260506173516 22 169 16.1 19.3 0.00 0.00 0.00
20260506173113 22 176 12.9 25.7 0.00 0.00 0.00
20260506172712 22 181 14.5 20.9 0.00 0.00 0.00
20260506172311 23 169 19.3 30.6 0.00 0.00 0.00
20260506171909 23 175 14.5 22.5 0.00 0.00 0.00
20260506171508 23 168 16.1 22.5 0.00 0.00 0.00
20260506171105 23 148 17.7 29.0 0.00 0.00 0.00
20260506170704 23 161 16.1 20.9 0.00 0.00 0.00
20260506170303 23 166 16.1 29.0 0.00 0.00 0.00
20260506165901 23 158 14.5 19.3 0.00 0.00 0.00
20260506165452 23 177 20.9 27.4 0.00 0.00 0.00
20260506165050 23 172 20.9 29.0 0.00 0.00 0.00
20260506164649 23 177 20.9 27.4 0.00 0.00 0.00
20260506164248 23 178 27.4 37.0 0.00 0.00 0.00
20260506163845 23 185 20.9 30.6 0.00 0.00 0.00
20260506163444 24 187 19.3 25.7 0.00 0.00 0.00
20260506163042 24 181 24.1 37.0 0.00 0.00 0.00
20260506162641 24 175 19.3 30.6 0.00 0.00 0.00
20260506162239 23 170 16.1 25.7 0.00 0.00 0.00
20260506161837 24 157 19.3 25.7 0.00 0.00 0.00
20260506161429 23 168 20.9 30.6 0.00 0.00 0.00
20260506161028 23 178 24.1 32.2 0.00 0.00 0.00
20260506160627 23 177 25.7 37.0 0.00 0.00 0.00
20260506160225 23 160 22.5 38.6 0.00 0.00 0.00
20260506155823 23 178 22.5 33.8 0.00 0.00 0.00
20260506155422 25 165 20.9 30.6 0.00 0.00 0.00
20260506155020 25 140 17.7 22.5 0.00 0.00 0.00
20260506154618 26 164 19.3 30.6 0.00 0.00 0.00
20260506154217 26 166 11.3 16.1 0.00 0.00 0.00
20260506153815 25 202 16.1 22.5 0.00 0.00 0.00
20260506153407 25 175 20.9 27.4 0.00 0.00 0.00
20260506153004 25 180 22.5 27.4 0.00 0.00 0.00
20260506152603 26 178 17.7 29.0 0.00 0.00 0.00
20260506152202 25 170 16.1 22.5 0.00 0.00 0.00
20260506151800 25 177 17.7 24.1 0.00 0.00 0.00
20260506151358 25 178 17.7 27.4 0.00 0.00 0.00
20260506150956 25 180 20.9 32.2 0.00 0.00 0.00
20260506150555 25 203 19.3 29.0 0.00 0.00 0.00
20260506150154 25 188 16.1 25.7 0.00 0.00 0.00
20260506145752 25 185 19.3 30.6 0.00 0.00 0.00
20260506145343 25 155 14.5 22.5 0.00 0.00 0.00
20260506144941 25 173 14.5 22.5 0.00 0.00 0.00
20260506144540 26 186 12.9 17.7 0.00 0.00 0.00
20260506144140 25 208 14.5 25.7 0.00 0.00 0.00
20260506143737 25 193 12.9 19.3 0.00 0.00 0.00
20260506143336 25 201 14.5 25.7 0.00 0.00 0.00
20260506142934 26 194 9.7 16.1 0.00 0.00 0.00
20260506142533 25 207 17.7 24.1 0.00 0.00 0.00
20260506142131 26 248 6.4 12.9 0.00 0.00 0.00
20260506141729 25 225 11.3 14.5 0.00 0.00 0.00
20260506141321 25 214 11.3 16.1 0.00 0.00 0.00
20260506140919 25 202 6.4 14.5 0.00 0.00 0.00
20260506140517 24 216 12.9 20.9 0.00 0.00 0.00
20260506140116 24 223 12.9 16.1 0.00 0.00 0.00
20260506135714 25 217 11.3 19.3 0.00 0.00 0.00
20260506135313 25 219 9.7 12.9 0.00 0.00 0.00
20260506134911 25 207 12.9 19.3 0.00 0.00 0.00
20260506134509 25 186 16.1 20.9 0.00 0.00 0.00
20260506134108 24 195 12.9 22.5 0.00 0.00 0.00
20260506133706 24 201 12.9 16.1 0.00 0.00 0.00
20260506133258 24 200 14.5 20.9 0.00 0.00 0.00
20260506132855 25 212 9.7 16.1 0.00 0.00 0.00
20260506132454 25 213 14.5 24.1 0.00 0.00 0.00
20260506132053 25 236 9.7 16.1 0.00 0.00 0.00
20260506131652 25 223 11.3 16.1 0.00 0.00 0.00
20260506131249 26 205 9.7 17.7 0.00 0.00 0.00
20260506130847 25 212 12.9 20.9 0.00 0.00 0.00
20260506130447 25 255 11.3 16.1 0.00 0.00 0.00
20260506130046 25 212 11.3 16.1 0.00 0.00 0.00
20260506125643 26 148 6.4 11.3 0.00 0.00 0.00
20260506125235 26 136 9.7 12.9 0.00 0.00 0.00
20260506124833 27 146 9.7 16.1 0.00 0.00 0.00
20260506124432 27 189 4.8 8.0 0.00 0.00 0.00
20260506124031 26 200 4.8 9.7 0.00 0.00 0.00
20260506123628 26 180 6.4 11.3 0.00 0.00 0.00
20260506123227 25 201 8.0 14.5 0.00 0.00 0.00
20260506122825 24 203 8.0 16.1 0.00 0.00 0.00
20260506122424 25 215 12.9 16.1 0.00 0.00 0.00
20260506122022 25 224 9.7 14.5 0.00 0.00 0.00
20260506121620 24 217 12.9 17.7 0.00 0.00 0.00
20260506121212 24 205 14.5 22.5 0.00 0.00 0.00
20260506120810 24 219 12.9 19.3 0.00 0.00 0.00
20260506120408 24 206 12.9 20.9 0.00 0.00 0.00
20260506120007 24 220 12.9 17.7 0.00 0.00 0.00
20260506115605 25 228 11.3 16.1 0.00 0.00 0.00
20260506115204 25 233 17.7 24.1 0.00 0.00 0.00
20260506114801 25 225 8.0 12.9 0.00 0.00 0.00
20260506114400 25 213 12.9 20.9 0.00 0.00 0.00
20260506113959 25 219 12.9 20.9 0.00 0.00 0.00
20260506113557 25 247 9.7 14.5 0.00 0.00 0.00
20260506113149 24 230 14.5 22.5 0.00 0.00 0.00
20260506112746 25 233 14.5 22.5 0.00 0.00 0.00
20260506112345 25 232 11.3 22.5 0.00 0.00 0.00
20260506111944 24 273 14.5 25.7 0.00 0.00 0.00
20260506111542 25 283 14.5 29.0 0.00 0.00 0.00
20260506111140 25 263 11.3 19.3 0.00 0.00 0.00
20260506110738 24 251 12.9 20.9 0.00 0.00 0.00
20260506110337 25 237 11.3 14.5 0.00 0.00 0.00
20260506105936 23 227 14.5 22.5 0.00 0.00 0.00
20260506105533 24 252 4.8 8.0 0.00 0.00 0.00
20260506105125 24 228 11.3 20.9 0.00 0.00 0.00
20260506104723 23 236 11.3 16.1 0.00 0.00 0.00
20260506104322 23 231 12.9 19.3 0.00 0.00 0.00
20260506103920 23 255 12.9 16.1 0.00 0.00 0.00
20260506103518 23 227 6.4 11.3 0.00 0.00 0.00
20260506103117 23 222 11.3 20.9 0.00 0.00 0.00
20260506102716 23 249 8.0 14.5 0.00 0.00 0.00
20260506102315 23 282 12.9 16.1 0.00 0.00 0.00
20260506101912 24 257 6.4 12.9 0.00 0.00 0.00
20260506101511 23 250 9.7 16.1 0.00 0.00 0.00
20260506101103 23 267 9.7 14.5 0.00 0.00 0.00
20260506100701 23 258 12.9 16.1 0.00 0.00 0.00
20260506100259 24 279 11.3 19.3 0.00 0.00 0.00
20260506095858 23 236 8.0 14.5 0.00 0.00 0.00
20260506095456 23 233 11.3 19.3 0.00 0.00 0.00
20260506095055 23 211 11.3 17.7 0.00 0.00 0.00
20260506094652 23 241 9.7 14.5 0.00 0.00 0.00
20260506094251 23 266 9.7 19.3 0.00 0.00 0.00
20260506093850 25 255 8.0 12.9 0.00 0.00 0.00
20260506093448 23 256 14.5 22.5 0.00 0.00 0.00
20260506093039 23 270 12.9 16.1 0.00 0.00 0.00
20260506092637 22 269 9.7 17.7 0.00 0.00 0.00
20260506092236 22 212 11.3 17.7 0.00 0.00 0.00
20260506091835 23 223 11.3 16.1 0.00 0.00 0.00
20260506091433 23 271 14.5 20.9 0.00 0.00 0.00
20260506091031 23 256 12.9 20.9 0.00 0.00 0.00
20260506090629 23 250 9.7 17.7 0.00 0.00 0.00
20260506090228 22 243 14.5 22.5 0.00 0.00 0.00
20260506085827 22 211 11.3 22.5 0.00 0.00 0.00
20260506085423 22 211 11.3 17.7 0.00 0.00 0.00
20260506085016 22 233 12.9 20.9 0.00 0.00 0.00
20260506084614 22 277 12.9 17.7 0.00 0.00 0.00
20260506084212 22 255 14.5 25.7 0.00 0.00 0.00
20260506083810 22 284 11.3 16.1 0.00 0.00 0.00
20260506083408 22 256 9.7 19.3 0.00 0.00 0.00
20260506083007 22 252 12.9 22.5 0.00 0.00 0.00
20260506082605 22 246 11.3 22.5 0.00 0.00 0.00
20260506082203 22 206 6.4 9.7 0.00 0.00 0.00
20260506081802 22 236 9.7 12.9 0.00 0.00 0.00
20260506081400 21 242 14.5 20.9 0.00 0.00 0.00
20260506080952 21 258 11.3 14.5 0.00 0.00 0.00
20260506080550 22 233 9.7 19.3 0.00 0.00 0.00
20260506080148 21 200 12.9 22.5 0.00 0.00 0.00
20260506073337 21 235 12.9 17.7 0.00 0.00 0.00
20260506072928 21 239 14.5 24.1 0.00 0.00 0.00
20260506072526 21 213 8.0 11.3 0.00 0.00 0.00
20260506072125 21 209 8.0 16.1 0.00 0.00 0.00
20260506071724 21 211 11.3 19.3 0.00 0.00 0.00
20260506071321 21 208 17.7 25.7 0.00 0.00 0.00
20260506070920 23 225 11.3 19.3 0.00 0.00 0.00
20260506070518 24 231 14.5 24.1 0.00 0.00 0.00
20260506070117 22 229 11.3 16.1 0.00 0.00 0.00
20260506062456 20 200 9.7 14.5 0.00 0.00 0.00
20260506062054 21 209 9.7 16.1 0.00 0.00 0.00
20260506061653 21 168 11.3 16.1 0.00 0.00 0.00
20260506061251 21 153 6.4 12.9 0.00 0.00 0.00
20260506060843 20 146 12.9 17.7 0.00 0.00 0.00
20260506060440 20 142 12.9 22.5 0.00 0.00 0.00
20260506051213 18 152 14.5 27.4 0.00 0.00 0.00
20260506050812 18 157 12.9 17.7 0.00 0.00 0.00
20260506050410 18 163 16.1 25.7 0.00 0.00 0.00
20260506044355 17 144 14.5 25.7 0.00 0.00 0.00
20260506043954 18 132 9.7 12.9 0.00 0.00 0.00
20260506043552 17 137 11.3 14.5 0.00 0.00 0.00
20260506043150 18 184 8.0 14.5 0.00 0.00 0.00
20260506042749 17 157 6.4 11.3 0.00 0.00 0.00
20260506042347 17 181 12.9 25.7 0.00 0.00 0.00
20260506041945 17 176 16.1 24.1 0.00 0.00 0.00
20260506041544 17 165 14.5 22.5 0.00 0.00 0.00
20260506041142 17 167 14.5 22.5 0.00 0.00 0.00
20260506040734 17 152 12.9 19.3 0.00 0.00 0.00
20260506040331 17 161 11.3 17.7 0.00 0.00 0.00
20260506035930 17 153 12.9 17.7 0.00 0.00 0.00
20260506035529 17 147 12.9 17.7 0.00 0.00 0.00
20260506035127 17 152 12.9 16.1 0.00 0.00 0.00
20260506034725 16 144 11.3 19.3 0.00 0.00 0.00
20260506034323 16 146 8.0 14.5 0.00 0.00 0.00
20260506033922 16 156 11.3 16.1 0.00 0.00 0.00
20260506033522 17 137 8.0 16.1 0.00 0.00 0.00
20260506033120 17 144 6.4 8.0 0.00 0.00 0.00
20260506032711 17 133 6.4 11.3 0.00 0.00 0.00
20260506032309 17 151 11.3 17.7 0.00 0.00 0.00
20260506031908 17 157 8.0 12.9 0.00 0.00 0.00
20260506031507 17 151 8.0 14.5 0.00 0.00 0.00
20260506031104 17 157 8.0 14.5 0.00 0.00 0.00
20260506030703 17 155 8.0 12.9 0.00 0.00 0.00
20260506030301 17 170 12.9 17.7 0.00 0.00 0.00
20260506025900 17 185 12.9 17.7 0.00 0.00 0.00
20260506025458 17 163 8.0 12.9 0.00 0.00 0.00
20260506025056 17 162 6.4 11.3 0.00 0.00 0.00
20260506024648 17 164 14.5 19.3 0.00 0.00 0.00
20260506024246 17 161 9.7 16.1 0.00 0.00 0.00
20260506023844 17 178 8.0 12.9 0.00 0.00 0.00